STARLINK-11271 [DTC]

Last updated on Tue Oct 01 2024 00:02:04 GMT+0000 (Coordinated Universal Time)

1 60915U 24154N 24273.79522529 -.00000800 00000+0 -88502-6 0 9994 2 60915 53.1606 204.6784 0001705 85.9297 274.1919 15.76727384 5893
UTC large
Height (km)
Speed (km/s)
/
Latitude / Longitude
Inclination (degrees)
Orbital Period (minutes)
Azimuth
Elevation
Range (km)
Doppler Factor

Next 0 passes for location: London (51.5072 / 0.1276)

Sorry there are no passes over London.